Terminal Aerodrome Forecast
Issued by NWS Chicago, IL

Home | Current Version | Previous Version | Graphics & Text | Print | Product List | Glossary On
Versions: 1 2 3 4 5 6 7 8 9 10 11 12 13 14 15 16 17 18 19 20 21 22 23 24 25 26 27 28 29 30 31 32 33 34 35 36 37 38
000
FTUS43 KLOT 180900 AAA
TAFRFD
TAF AMD
KRFD 180902Z 1809/1906 32011KT P6SM SCT025 OVC035
     FM181200 34012G18KT P6SM OVC025
     FM181700 35011KT P6SM BKN035
     FM182300 35006KT P6SM FEW040
     FM190300 00000KT P6SM FEW250=

USA.gov is the U.S. government's official web portal to all federal, state and local government web resources and services.